Location: Stockholm
(59.3330°N, 18.0500°E)
Time: 13:56:40
(UTC+01:00)

Envisat - Pass Details

Date: 01 December 2022
Orbit: 763 x 765 km, 98.2° (Epoch: 29 January)

Event Time Altitude Azimuth Distance (km) Brightness Sun altitude
Rises 04:50:24 0° 16° (NNE) 3,250 6.4 -24.5°
Reaches altitude 10° 04:52:44 10° 14° (NNE) 2,319 5.6 -24.2°
Maximum altitude 04:57:48 69° 293° (WNW) 824 2.9 -23.5°
Enters shadow 04:58:41 57° 239° (WSW) 906 3.0 -23.4°
